Regional Weather Roundup
Issued by NWS

Home | Current Version | Previous Version | Graphics & Text | Print | Product List | Glossary On
Versions: 1 2 3 4 5 6 7 8 9 10 11 12 13 14 15 16 17 18 19 20 21 22 23 24 25 26 27 28 29 30 31 32 33 34 35 36 37 38 39 40 41 42 43 44 45 46 47 48 49 50
000
ASUS43 KBIS 041801
RWRND

NORTH DAKOTA REGIONAL WEATHER ROUNDUP
NATIONAL WEATHER SERVICE BISMARCK ND
100 PM CDT MON MAY 04 2015

NOTE: "FAIR" INDICATES FEW OR NO CLOUDS BELOW 12,000 FEET WITH NO
SIGNIFICANT WEATHER AND/OR OBSTRUCTIONS TO VISIBILITY.


NDZ001>003-009>011-017-041900-
NORTHWEST NORTH DAKOTA

CITY           SKY/WX    TMP DP  RH WIND       PRES   REMARKS
WILLISTON      SUNNY     69  26  20 S15       30.12F
6HR MIN TEMP:  32; 6HR MAX TEMP:  69;

MINOT          SUNNY     66  22  18 SE14G20   30.17F
MINOT AFB      SUNNY     67  25  19 SW10      30.17F
$$

NDZ018>021-031>035-040>046-041900-
SOUTHWEST NORTH DAKOTA

CITY           SKY/WX    TMP DP  RH WIND       PRES   REMARKS
BISMARCK       MOSUNNY   66  24  20 SW6       30.21F
6HR MIN TEMP:  34; 6HR MAX TEMP:  66;

DICKINSON      SUNNY     63  32  31 S22G30    30.15F
GARRISON         N/A     66  25  21 S13       30.18F
6HR MIN TEMP:  34; 6HR MAX TEMP:  66;

HETTINGER ARPT PTSUNNY   55  35  47 S16G24    30.21F
$$

NDZ004>008-012>016-024-026-027-054-041900-
NORTHEAST NORTH DAKOTA

CITY           SKY/WX    TMP DP  RH WIND       PRES   REMARKS
GRAND FORKS    MOSUNNY   65  29  25 CALM      30.22F
GRND FRKS AFB  MOSUNNY   65  29  25 SW6       30.22F
DEVILS LAKE    SUNNY     63  25  23 S6        30.22S
$$

NDZ022-023-025-028>030-036>039-047>053-041900-
SOUTHEAST NORTH DAKOTA

CITY           SKY/WX    TMP DP  RH WIND       PRES   REMARKS
FARGO          PTSUNNY   64  29  26 CALM      30.22F
6HR MIN TEMP:  40; 6HR MAX TEMP:  65;

JAMESTOWN      MOSUNNY   63  25  23 VRB3G16   30.22F
$$



USA.gov is the U.S. government's official web portal to all federal, state and local government web resources and services.